Troutdale, OR

12:43 AM PDT on August 31, 2016 (GMT -0700)
Portland-Troutdale

Weather History for KTTD - December, 2012

Change the Weather History Date:

Monday, December 3, 2012

  Actual Average Record
Temperature  
Mean Temperature 52 °F 41 °F  
Max Temperature 56 °F 47 °F 61 °F (1982)
Min Temperature 48 °F 35 °F 23 °F (1985)
Degree Days  
Heating Degree Days 13 24  
Month to date heating degree days 43 72  
Cooling Degree Days 0 0  
Month to date cooling degree days 0 0  
Growing Degree Days 2 (Base 50)    
Moisture  
Dew Point 44 °F    
Average Humidity 74    
Maximum Humidity 86    
Minimum Humidity 61    
Precipitation  
Precipitation 0.13 in 0.23 in 2.02 in (1987)
Month to date precipitation 0.13 0.70  
Year to date precipitation 43.51 40.50  
Snow  
Snow 0.00 in - - ()
Snow Depth 0.00 in    
Sea Level Pressure  
Sea Level Pressure 29.95 in    
Wind  
Wind Speed 9 mph (SSE)    
Max Wind Speed 21 mph    
Max Gust Speed 28 mph    
Visibility 10 miles    
Events Rain    
T = Trace of Precipitation, MM = Missing Value Source: NWS Daily Summary

Daily Weather History Graph

Daily Weather History Graph

Search for Another Location

Airport or City:

Trip Planner

Search our weather history database for the weather conditions in past years. The results will help you decide how hot, cold, wet, or windy it might be!

Date:

Astronomy

Dec. 03, 2012 Rise Set
Actual Time 7:32 AM PST 4:26 PM PST
Civil Twilight 6:58 AM PST 5:00 PM PST
Nautical Twilight 6:21 AM PST 5:37 PM PST
Astronomical Twilight 5:45 AM PST 6:13 PM PST
Moon 9:27 PM PST (12/3) 10:51 AM PST (12/3)
Length of Visible Light 10h 01m
Length of Day
8h 54m
Waning Gibbous, 77% of the Moon is Illuminated
Dec 3
Waning Gibbous
Dec 6
Last Quarter
Dec 13
New
Dec 19
First Quarter
Dec 28
Full

Hourly Weather History & Observations

Time (PST) Temp. Dew Point Humidity Pressure Visibility Wind Dir Wind Speed Gust Speed Precip Events Conditions
12:53 AM 50.0 °F 44.1 °F 80% 29.93 in 10.0 mi SW 11.5 mph 16.1 mph 0.00 in   Overcast
1:53 AM 50.0 °F 43.0 °F 77% 29.96 in 10.0 mi SSW 8.1 mph - N/A   Mostly Cloudy
2:53 AM 50.0 °F 43.0 °F 77% 29.98 in 10.0 mi South 10.4 mph - 0.00 in Rain Light Rain
3:53 AM 50.0 °F 43.0 °F 77% 29.98 in 10.0 mi SSW 8.1 mph - 0.00 in Rain Light Rain
4:53 AM 48.9 °F 44.1 °F 83% 29.99 in 10.0 mi SSW 10.4 mph - 0.00 in Rain Light Rain
5:53 AM 48.9 °F 44.1 °F 83% 29.99 in 7.0 mi SSW 11.5 mph 18.4 mph 0.00 in Rain Light Rain
6:27 AM 48.2 °F 44.6 °F 87% 30.00 in 9.0 mi Calm Calm - 0.00 in Rain Light Rain
7:53 AM 50.0 °F 44.1 °F 80% 30.02 in 10.0 mi SSW 5.8 mph - 0.00 in Rain Light Rain
8:53 AM 50.0 °F 44.1 °F 80% 30.03 in 8.0 mi SSW 12.7 mph 20.7 mph 0.00 in Rain Light Rain
9:53 AM 51.1 °F 45.0 °F 80% 30.04 in 10.0 mi Calm Calm - 0.02 in   Overcast
10:53 AM 53.1 °F 45.0 °F 74% 30.05 in 10.0 mi WSW 8.1 mph - N/A   Overcast
11:53 AM 55.0 °F 43.0 °F 64% 30.04 in 10.0 mi SSW 10.4 mph - N/A   Overcast
12:53 PM 54.0 °F 43.0 °F 66% 30.03 in 10.0 mi SSW 11.5 mph - 0.00 in Rain Light Rain
1:53 PM 55.9 °F 45.0 °F 67% 30.01 in 10.0 mi Calm Calm - 0.00 in   Overcast
2:53 PM 55.0 °F 44.1 °F 67% 30.01 in 10.0 mi South 3.5 mph - 0.00 in   Overcast
3:53 PM 53.1 °F 45.0 °F 74% 30.01 in 10.0 mi East 9.2 mph - 0.00 in   Overcast
4:53 PM 51.1 °F 45.0 °F 80% 29.98 in 10.0 mi East 11.5 mph - N/A   Overcast
5:53 PM 51.1 °F 45.0 °F 80% 29.95 in 10.0 mi East 10.4 mph - N/A   Overcast
6:53 PM 50.0 °F 44.1 °F 80% 29.92 in 10.0 mi East 9.2 mph - N/A   Partly Cloudy
7:53 PM 51.1 °F 44.1 °F 77% 29.87 in 10.0 mi East 11.5 mph - N/A   Overcast
8:53 PM 50.0 °F 43.0 °F 77% 29.81 in 10.0 mi East 11.5 mph - N/A   Overcast
9:53 PM 50.0 °F 43.0 °F 77% 29.76 in 10.0 mi East 15.0 mph - N/A   Overcast
10:53 PM 48.9 °F 43.0 °F 80% 29.76 in 9.0 mi Calm Calm - 0.01 in Rain Light Rain
11:53 PM 48.0 °F 44.1 °F 86% 29.68 in 9.0 mi East 13.8 mph - 0.08 in Rain Light Rain